Regional Weather Roundup
Issued by NWS

Home | Current Version | Previous Version | Text Only | Print | Product List | Glossary On
Versions: 1 2 3 4 5 6 7 8 9 10 11 12 13 14 15 16 17 18 19 20 21 22 23 24 25 26 27 28 29 30 31 32 33 34 35 36 37 38 39 40 41 42 43 44 45 46 47 48 49 50
243
ASUS44 KJAN 300403
RWRMS

MISSISSIPPI HOURLY WEATHER ROUNDUP
NATIONAL WEATHER SERVICE JACKSON MS
1100 PM CDT TUE JUL 29 2014

NOTE: "FAIR: INDICATES FEW OR NO CLOUDS BELOW 12,000 FEET WITH NO
SIGNIFICANT WEATHER AND/OR OBSTRUCTIONS TO VISIBILITY.

MSZ001>002-007>008-010>013-018>021-025>028-034>036-300500-
NORTHWEST MISSISSIPPI

CITY           SKY/WX    TMP DP  RH WIND       PRES   REMARKS
CLARKSDALE     FAIR      64  63  94 N5        30.11S
CLEVELAND      FAIR      65  62  90 CALM      30.09S
GREENWOOD      CLEAR     64  61  90 CALM      30.10R
GREENVILLE     CLEAR     66  62  87 CALM      30.09S
GRENADA        FAIR      61  59  94 NW3       30.11R
OLIVE BRANCH   CLEAR     63  63 100 CALM      30.11S
OXFORD         FAIR      61  57  88 CALM      30.12S
TUNICA         CLEAR     64  59  82 CALM      30.11S
$$

MSZ003>006-009-014>017-022>024-029>033-037>039-300500-
NORTHEAST MISSISSIPPI

CITY           SKY/WX    TMP DP  RH WIND       PRES   REMARKS
BELMONT        FAIR      62  57  84 CALM      30.10S
COLUMBUS AFB   CLEAR     61  58  90 NW3       30.09R
CORINTH        FAIR      59  57  94 CALM      30.10S
GOLDN TRIANGLE CLEAR     64  55  72 CALM      30.10R
STARKVILLE     FAIR      61  59  94 CALM      30.09S
TUPELO         CLEAR     65  58  78 CALM      30.10R
$$

MSZ040-058-300500-
CENTRAL MISSISSIPPI

CITY           SKY/WX    TMP DP  RH WIND       PRES   REMARKS
JACKSON INTL   CLEAR     70  61  73 N5        30.08R
JACKSON HAWKNS CLEAR     73  58  59 N7        30.09R
MERIDIAN KEY   CLEAR     66  58  75 N6        30.07R
MERIDIAN NAS   CLEAR     68  56  65 N5        30.08R
RAYMOND        FAIR      68  64  88 CALM      30.09R
VICKSBURG      CLEAR     70  62  76 NE9       30.08R
$$

MSZ059>079-300500-
SOUTH MISSISSIPPI

CITY           SKY/WX    TMP DP  RH WIND       PRES   REMARKS
BROOKHAVEN     FAIR      70  64  83 CALM      30.09S
COLUMBIA       FAIR      73  64  73 N3        30.05R
HATTIESBURG    CLEAR     76  64  66 N5        30.06R
MCCOMB         CLEAR     76  64  66 N6        30.07R
NATCHEZ        CLEAR     73  64  73 NE3       30.08S
PINE BELT      CLEAR     72  61  68 N6        30.07S
$$

MSZ080>082-300500-
COASTAL MISSISSIPPI

CITY           SKY/WX    TMP DP  RH WIND       PRES   REMARKS
BILOXI         CLEAR     79  67  67 VRB2      30.02R
PASCAGOULA     CLOUDY    75  71  87 CALM      30.02R
GULFPORT       MOCLDY    82  66  58 N6        30.02R
$$



USA.gov is the U.S. government's official web portal to all federal, state and local government web resources and services.